DateTimeUTC,F1_A11,F1_S11,BsB_S11,BsG_S11,BsR_S11,BbsB_S11,BbsG_S11,BbsR_S11,BaB_A11,BaG_A11,BaR_A11,Tu_S11,T_S11,Uu_S11,U_S11,P_S11,T1_A11
2021-08-05T23:00:00Z,00000200,20000000,,,,,,,-000.94,-000.52,-000.93,18.9,25.9,04.9,03.2,0669.4,31.1
2021-08-05T23:01:00Z,00000200,20000000,,,,,,,0000.22,0000.62,0000.75,18.9,25.9,04.9,03.2,0669.4,31.1
2021-08-05T23:02:00Z,00000200,20000000,,,,,,,0000.36,-000.06,0000.18,18.9,25.9,04.9,03.2,0669.4,31.1
2021-08-05T23:03:00Z,00000200,60000000,,,,,,,0000.66,0000.64,0000.54,18.9,25.9,04.9,03.2,0669.4,31.0
2021-08-05T23:04:00Z,00000200,40000000,0003.68,0002.78,0001.62,0000.37,0000.59,0000.52,-000.20,-000.44,-000.78,19.0,25.7,05.0,03.3,0670.3,31.0
2021-08-05T23:05:00Z,00000200,00000000,0003.97,0003.00,0001.95,0000.91,0000.79,0000.44,0000.79,0000.87,0000.58,19.1,25.7,04.6,03.1,0670.4,31.1
2021-08-05T23:06:00Z,00000200,00000000,0003.63,0003.04,0001.60,0000.01,0000.93,0000.28,0001.91,0001.91,0001.67,19.1,25.7,04.9,03.3,0670.3,31.0
2021-08-05T23:07:00Z,00000200,00000000,0003.22,0002.25,0001.60,0000.03,0000.72,0000.34,0000.93,0001.02,0000.85,19.0,25.6,05.4,03.6,0670.3,31.1
2021-08-05T23:08:00Z,00000200,00000000,0003.87,0002.44,0001.55,-000.45,0000.71,0000.14,-001.50,-001.83,-002.13,19.0,25.6,04.8,03.2,0670.3,31.1
2021-08-05T23:09:00Z,00000200,00000000,0003.56,0002.73,0001.31,-000.06,0000.46,0000.28,-000.21,-000.48,-000.26,19.0,25.6,04.3,02.9,0670.3,31.1
2021-08-05T23:10:00Z,00000200,00000000,0004.22,0003.12,0001.85,0000.76,0000.39,0000.61,0000.55,0000.51,0000.41,19.0,25.6,03.6,02.5,0670.3,31.0
2021-08-05T23:11:00Z,00000200,00000000,0004.71,0002.86,0002.13,0000.17,0000.67,0000.36,0000.67,0000.74,0000.59,19.0,25.6,03.7,02.5,0670.3,31.1
2021-08-05T23:12:00Z,00000200,00000000,0003.99,0003.19,0002.06,0000.59,0000.71,0000.54,0001.13,0000.92,0000.55,19.0,25.6,03.5,02.4,0670.3,31.0
2021-08-05T23:13:00Z,00000200,00000000,0003.87,0003.04,0002.34,0000.66,0000.99,0000.49,0000.92,0000.95,0000.78,19.0,25.6,03.7,02.5,0670.3,31.0
2021-08-05T23:14:00Z,00000200,00000000,0003.81,0002.58,0001.37,0000.21,0000.63,0000.65,0002.67,0002.72,0002.40,19.0,25.6,04.3,02.9,0670.3,31.0
2021-08-05T23:15:00Z,00000200,00000000,0004.36,0003.09,0002.30,0000.64,0000.70,0000.82,0000.50,0000.20,0000.12,19.0,25.5,04.3,02.9,0670.3,31.0
2021-08-05T23:16:00Z,00000200,00000000,0004.52,0003.33,0001.92,0000.19,0000.48,0000.24,0001.22,0001.36,0001.23,19.0,25.5,04.5,03.0,0670.3,31.0
2021-08-05T23:17:00Z,00000200,00000000,0004.63,0002.99,0002.09,0000.72,0000.48,0000.53,0000.54,0000.54,-000.19,19.0,25.5,04.6,03.1,0670.3,31.1
2021-08-05T23:18:00Z,00000200,00000000,0004.01,0003.03,0001.95,0000.70,0000.55,0000.40,0001.17,0000.99,0001.07,19.0,25.5,04.5,03.0,0670.3,31.1
2021-08-05T23:19:00Z,00000200,00000000,0004.98,0003.08,0001.65,0000.72,0000.50,-000.02,0001.22,0001.27,0000.97,19.0,25.5,04.6,03.1,0670.3,31.0
2021-08-05T23:20:00Z,00000200,00000000,0004.27,0002.93,0002.11,0000.94,0000.61,0000.42,0000.46,0000.01,0000.04,19.0,25.5,04.5,03.0,0670.3,31.0
2021-08-05T23:21:00Z,00000200,00000000,0005.33,0003.13,0001.78,0001.06,0000.28,0000.06,0000.09,0000.23,-000.24,19.0,25.5,04.3,02.9,0670.3,31.0
2021-08-05T23:22:00Z,00000200,00000000,0003.68,0003.26,0002.30,0000.12,0000.68,0000.53,0000.66,0000.27,0000.45,19.0,25.5,03.9,02.6,0670.3,31.0
2021-08-05T23:23:00Z,00000200,00000000,0002.91,0003.35,0001.96,-000.17,0000.79,0000.64,0000.66,0000.61,0000.33,19.0,25.5,03.9,02.6,0670.3,31.0
2021-08-05T23:24:00Z,00000200,00000000,0004.31,0003.28,0002.12,0000.90,0000.36,0000.35,0001.34,0001.50,0001.36,18.9,25.5,03.9,02.6,0670.3,31.0
2021-08-05T23:25:00Z,00000200,00000000,0004.54,0003.13,0002.55,0000.43,0000.76,0000.49,0001.16,0000.81,0000.64,18.9,25.5,04.1,02.8,0670.3,31.0
2021-08-05T23:26:00Z,00000200,00000000,0004.81,0003.45,0002.01,0000.48,0000.65,0000.47,0001.24,0001.14,0001.13,18.9,25.5,04.1,02.8,0670.3,31.0
2021-08-05T23:27:00Z,00000200,00000000,0005.01,0002.79,0001.97,0000.54,0000.67,0000.14,0000.59,0000.62,0000.71,18.9,25.5,04.2,02.8,0670.3,31.1
2021-08-05T23:28:00Z,00000200,00000000,0004.67,0002.84,0001.81,0000.90,0000.81,0000.22,0000.59,0000.51,0000.16,18.9,25.5,04.1,02.7,0670.3,31.0
2021-08-05T23:29:00Z,00000200,00000000,0004.64,0003.06,0002.00,0000.75,0000.61,0000.31,0000.65,0000.53,-000.03,18.9,25.4,03.9,02.6,0670.3,31.0
2021-08-05T23:30:00Z,00000200,00000000,0004.88,0003.33,0001.79,0001.05,0000.96,0000.55,0000.31,0000.31,-000.32,18.9,25.4,03.5,02.4,0670.3,31.1
2021-08-05T23:31:00Z,00000200,00000000,0004.77,0002.80,0002.10,0000.86,0000.71,0000.36,0000.72,0000.68,0000.84,18.9,25.4,03.5,02.4,0670.3,31.0
2021-08-05T23:32:00Z,00000200,00000000,0004.33,0002.88,0002.14,0000.37,0000.45,0000.16,0001.47,0001.10,0001.10,18.9,25.4,03.5,02.3,0670.3,31.0
2021-08-05T23:33:00Z,00000200,00000000,0004.13,0003.04,0002.46,0000.25,0000.67,0000.52,0001.27,0001.31,0000.89,18.9,25.4,03.6,02.4,0670.3,31.0
2021-08-05T23:34:00Z,00000200,00000000,0004.58,0002.92,0002.26,0000.72,0000.77,0000.37,0002.75,0003.10,0002.94,18.9,25.4,04.1,02.8,0670.3,31.0
2021-08-05T23:35:00Z,00000200,00000000,0002.44,0001.52,0001.30,-000.37,0000.62,0000.12,0001.00,0000.83,0000.73,18.9,25.4,04.9,03.3,0670.3,31.0
2021-08-05T23:36:00Z,00000200,00000000,0002.85,0001.66,0001.22,-000.27,0000.56,0000.15,0000.26,-000.02,-000.22,18.9,25.4,04.5,03.0,0670.3,31.0
2021-08-05T23:37:00Z,00000200,00000000,0001.46,0001.24,0000.54,-000.23,0000.38,0000.06,0000.05,0000.35,-000.00,18.9,25.4,04.7,03.2,0670.3,31.0
2021-08-05T23:38:00Z,00000200,00000000,0002.87,0001.75,0000.84,0000.23,0000.50,0000.27,-000.26,-000.60,-000.28,18.9,25.4,04.6,03.1,0670.3,31.0
2021-08-05T23:39:00Z,00000200,00000000,0004.67,0003.08,0001.68,0000.67,0000.56,0000.23,-000.28,-000.50,-000.49,18.9,25.4,04.0,02.7,0670.3,31.0
2021-08-05T23:40:00Z,00000200,00000000,0005.39,0003.00,0002.09,0000.93,0000.67,0000.26,0000.59,0000.71,0000.26,18.9,25.4,03.7,02.5,0670.3,31.0
2021-08-05T23:41:00Z,00000200,00000000,0004.54,0002.58,0002.01,0000.77,0000.33,0000.58,0000.84,0000.36,0000.44,18.9,25.4,03.8,02.5,0670.2,31.0
2021-08-05T23:42:00Z,00000200,00000000,0004.53,0002.97,0001.90,0000.60,0000.86,0000.13,0000.85,0000.75,0000.55,18.8,25.4,03.7,02.5,0670.2,31.0
2021-08-05T23:43:00Z,00000200,00000000,0003.99,0002.50,0002.02,0000.67,0000.58,0000.16,0000.07,0000.29,-000.06,18.8,25.3,03.4,02.3,0670.2,31.0
2021-08-05T23:44:00Z,00000200,00000000,0004.01,0003.13,0001.93,0000.58,0000.83,0000.63,-000.03,-000.06,-000.49,18.8,25.3,03.1,02.1,0670.3,31.0
2021-08-05T23:45:00Z,00000200,00000000,0004.19,0003.07,0002.14,0000.53,0000.80,0000.42,0000.70,0000.77,0000.58,18.8,25.3,02.9,02.0,0670.3,31.0
2021-08-05T23:46:00Z,00000200,00000000,0004.33,0003.16,0002.47,0000.21,0000.64,0000.37,0001.39,0001.46,0001.24,18.8,25.3,03.0,02.0,0670.2,31.0
2021-08-05T23:47:00Z,00000200,00000000,0002.80,0002.47,0001.42,-000.19,0000.19,0000.39,0003.16,0002.81,0002.90,18.8,25.3,03.4,02.3,0670.2,31.0
2021-08-05T23:48:00Z,00000200,00000000,0004.00,0002.46,0001.53,0000.21,0000.67,0000.05,-000.81,-001.02,-001.48,18.8,25.3,03.7,02.5,0670.2,31.0
2021-08-05T23:49:00Z,00000200,00000000,0004.52,0003.15,0001.66,0000.12,0000.55,0000.52,0000.69,0000.92,0000.76,18.8,25.3,03.3,02.2,0670.2,31.0
2021-08-05T23:50:00Z,00000200,00000000,0004.46,0002.81,0001.74,0000.41,0000.99,0000.30,0001.48,0001.03,0000.98,18.8,25.3,03.5,02.3,0670.2,31.0
2021-08-05T23:51:00Z,00000200,00000000,0001.53,0001.13,0000.81,-000.06,0000.37,0000.11,0001.59,0001.79,0001.93,18.8,25.3,04.0,02.7,0670.2,31.0
2021-08-05T23:52:00Z,00000200,00000000,0002.06,0001.70,0001.07,-000.12,0000.65,0000.31,-000.12,-000.05,-000.37,18.8,25.3,04.5,03.0,0670.2,31.0
2021-08-05T23:53:00Z,00000200,00000000,0003.87,0001.85,0001.38,0000.03,0000.64,-000.02,0000.47,0000.71,0000.57,18.8,25.3,04.1,02.8,0670.2,31.0
2021-08-05T23:54:00Z,00000200,00000000,0003.31,0002.21,0001.41,0000.65,0000.37,0000.41,0000.94,0000.39,0000.53,18.8,25.3,03.7,02.5,0670.2,31.0
2021-08-05T23:55:00Z,00000200,00000000,0004.59,0002.66,0001.82,0000.12,0000.80,0000.03,-001.05,-001.08,-001.31,18.9,25.3,03.5,02.4,0670.2,31.0
2021-08-05T23:56:00Z,00000200,00000000,0005.03,0002.89,0002.36,0000.65,0000.64,0000.22,0000.59,0000.31,-000.04,18.9,25.3,03.1,02.1,0670.2,31.0
2021-08-05T23:57:00Z,00000200,40000000,,,,,,,0001.36,0001.63,0001.67,19.0,25.4,03.1,02.1,0670.2,31.0
2021-08-05T23:58:00Z,00000200,60000000,,,,,,,-000.50,-000.41,-000.22,18.7,25.5,03.4,02.2,0669.2,31.0
2021-08-05T23:59:00Z,00000200,20000000,,,,,,,0000.39,0000.12,0000.01,18.7,25.6,03.2,02.1,0669.2,31.0
